This is the latest recevied weather packets stored in our database for station/object HB9FHL-13. If no packets are shown the sender has not sent any weather packets the latest 10 day(s).
| Time | Temp. | Humidity | Pressure | Rain* | Wind** | Luminosity | Snow |
|---|---|---|---|---|---|---|---|
| 1788516643 | 22.78° C | - | 1022 hPa | 0 mm | - | - | - |
| 1788516639 | 22.78° C | - | 1022 hPa | 0 mm | - | - | - |
| 1788516339 | 23.33° C | - | 1023.2 hPa | 0 mm | - | - | - |
| 1788516038 | 23.33° C | - | 1019.4 hPa | 0 mm | - | - | - |
| 1788515746 | 22.78° C | - | 1022.2 hPa | 0 mm | - | - | - |
| 1788515742 | 22.78° C | - | 1022.2 hPa | 0 mm | - | - | - |
| 1788515441 | 22.78° C | - | 1023.8 hPa | 0 mm | - | - | - |
| 1788515437 | 22.78° C | - | 1023.8 hPa | 0 mm | - | - | - |
| 1788515140 | 23.33° C | - | 1026.5 hPa | 0 mm | - | - | - |
| 1788515137 | 23.33° C | - | 1026.5 hPa | 0 mm | - | - | - |
| 1788514841 | 23.33° C | - | 1020.1 hPa | 0 mm | - | - | - |
| 1788514841 | 23.33° C | - | 1020.1 hPa | 0 mm | - | - | - |
| 1788514540 | 23.33° C | - | 1023.8 hPa | 0 mm | - | - | - |
| 1788514536 | 23.33° C | - | 1023.8 hPa | 0 mm | - | - | - |
| 1788514235 | 23.33° C | - | 1023.3 hPa | 0 mm | - | - | - |
| 1788513939 | 23.89° C | - | 1022.6 hPa | 0 mm | - | - | - |
| 1788513935 | 23.89° C | - | 1022.6 hPa | 0 mm | - | - | - |
| 1788513638 | 23.33° C | - | 1023.8 hPa | 0 mm | - | - | - |
| 1788513634 | 23.33° C | - | 1023.8 hPa | 0 mm | - | - | - |
| 1788513348 | 23.33° C | - | 1026.1 hPa | 0 mm | - | - | - |
| 1788513033 | 23.33° C | - | 1026.3 hPa | 0 mm | - | - | - |
| 1788512737 | 23.89° C | - | 1025.4 hPa | 0 mm | - | - | - |
| 1788512733 | 23.89° C | - | 1025.4 hPa | 0 mm | - | - | - |
| 1788512431 | 25° C | - | 1020.7 hPa | 0 mm | - | - | - |
| 1788511834 | 23.89° C | - | 1019.2 hPa | 0 mm | - | - | - |
* Rain since midnight (hover to see other rain measurements)
** Current wind speed in m/s (hover to see current wind gust speed)